When you browse on this site, cookies collect data to enhance your experience and personalize the content and advertising you see.
Visit our Privacy Policy to learn more. By continuing to use the site, you agree to this use of cookies and data.
  • In Switzerland
  • List of Countries
  • For 7 days
  • Water Temperature
  • Weather Map
  • Weather Widgets
  • user-avatar
    Login

    Hourly Weather Priozernaya

    Today, 20 August, Tuesday

    Time Temperature Precipitation Wind Pressure Humidity
    00:00 +19°C° 0 mm 1 mps 754 mmHg 95%
    01:00 +18°C° 0 mm 1 mps 754 mmHg 93%
    02:00 +18°C° 0 mm 1 mps 755 mmHg 91%
    03:00 +16°C° 0 mm 1 mps 755 mmHg 91%
    04:00 +15°C° 0 mm 1 mps 755 mmHg 90%
    05:00 +14°C° 0 mm 1 mps 756 mmHg 90%
    06:00 +15°C° 0 mm 1 mps 756 mmHg 86%
    07:00 +16°C° 0 mm 1 mps 756 mmHg 83%
    08:00 +18°C° 0 mm 1 mps 757 mmHg 79%
    09:00 +20°C° 0 mm 1 mps 757 mmHg 69%
    10:00 +22°C° 0 mm 1 mps 757 mmHg 60%
    11:00 +23°C° 0 mm 1 mps 757 mmHg 50%
    12:00 +24°C° 0 mm 2 mps 757 mmHg 50%
    13:00 +24°C° 0 mm 2 mps 758 mmHg 50%
    14:00 +24°C° 0 mm 2 mps 758 mmHg 50%
    15:00 +24°C° 0 mm 2 mps 758 mmHg 52%
    16:00 +24°C° 0 mm 1 mps 758 mmHg 54%
    17:00 +24°C° 0 mm 1 mps 758 mmHg 56%
    18:00 +22°C° 0 mm 1 mps 758 mmHg 63%
    19:00 +20°C° 0 mm 1 mps 758 mmHg 69%
    20:00 +18°C° 0 mm 1 mps 758 mmHg 75%
    21:00 +18°C° 0 mm 1 mps 758 mmHg 78%
    22:00 +16°C° 0 mm 1 mps 759 mmHg 80%
    23:00 +15°C° 0 mm 1 mps 759 mmHg 82%

    Tomorrow, 21 August, Wednesday

    Time Temperature Precipitation Wind Pressure Humidity
    00:00 +15°C° 0 mm 1 mps 759 mmHg 83%
    01:00 +14°C° 0 mm 0 mps 759 mmHg 84%
    02:00 +13°C° 0 mm 0 mps 759 mmHg 85%
    03:00 +14°C° 0 mm 1 mps 759 mmHg 85%
    04:00 +15°C° 0 mm 1 mps 759 mmHg 84%
    05:00 +15°C° 0 mm 1 mps 759 mmHg 83%
    06:00 +16°C° 0 mm 1 mps 759 mmHg 80%
    07:00 +18°C° 0 mm 1 mps 759 mmHg 76%
    08:00 +20°C° 0 mm 1 mps 759 mmHg 72%
    09:00 +20°C° 0 mm 1 mps 759 mmHg 72%
    10:00 +20°C° 0 mm 1 mps 759 mmHg 72%
    11:00 +21°C° 0 mm 1 mps 759 mmHg 72%
    12:00 +20°C° 0.1 mm 1 mps 759 mmHg 75%
    13:00 +20°C° 0.1 mm 1 mps 758 mmHg 79%
    14:00 +19°C° 0.1 mm 1 mps 758 mmHg 82%
    15:00 +18°C° 0.2 mm 1 mps 758 mmHg 85%
    16:00 +17°C° 0.2 mm 2 mps 757 mmHg 88%
    17:00 +16°C° 0.2 mm 2 mps 757 mmHg 90%
    18:00 +16°C° 1.7 mm 2 mps 757 mmHg 93%
    19:00 +15°C° 1.7 mm 2 mps 757 mmHg 95%
    20:00 +15°C° 1.7 mm 2 mps 757 mmHg 98%
    21:00 +15°C° 0.8 mm 2 mps 757 mmHg 98%
    22:00 +14°C° 0.8 mm 2 mps 757 mmHg 98%
    23:00 +14°C° 0.8 mm 2 mps 758 mmHg 98%

    Day after tomorrow, 22 August, Thursday

    Time Temperature Precipitation Wind Pressure Humidity
    00:00 +14°C° 0.2 mm 2 mps 758 mmHg 98%
    01:00 +13°C° 0.2 mm 2 mps 758 mmHg 98%
    02:00 +13°C° 0.2 mm 2 mps 759 mmHg 98%
    03:00 +12°C° 0 mm 2 mps 759 mmHg 98%
    04:00 +12°C° 0 mm 2 mps 759 mmHg 98%
    05:00 +10°C° 0 mm 2 mps 759 mmHg 98%
    06:00 +13°C° 0 mm 2 mps 759 mmHg 96%
    07:00 +14°C° 0 mm 2 mps 759 mmHg 93%
    08:00 +15°C° 0 mm 2 mps 760 mmHg 91%
    09:00 +17°C° 0 mm 2 mps 760 mmHg 80%
    10:00 +18°C° 0 mm 2 mps 760 mmHg 69%
    11:00 +20°C° 0 mm 2 mps 760 mmHg 58%
    12:00 +21°C° 0 mm 2 mps 760 mmHg 56%
    13:00 +21°C° 0 mm 2 mps 760 mmHg 53%
    14:00 +23°C° 0 mm 2 mps 760 mmHg 51%
    15:00 +23°C° 0 mm 2 mps 759 mmHg 54%
    16:00 +21°C° 0 mm 2 mps 759 mmHg 57%
    17:00 +21°C° 0 mm 2 mps 759 mmHg 59%
    18:00 +19°C° 0 mm 2 mps 760 mmHg 67%
    19:00 +17°C° 0 mm 2 mps 760 mmHg 75%
    20:00 +15°C° 0 mm 2 mps 760 mmHg 82%
    21:00 +15°C° 0 mm 1 mps 760 mmHg 85%
    22:00 +14°C° 0 mm 1 mps 761 mmHg 88%
    23:00 +13°C° 0 mm 1 mps 761 mmHg 92%

    23 August, Friday

    Time Temperature Precipitation Wind Pressure Humidity
    00:00 +13°C° 0 mm 1 mps 761 mmHg 91%
    01:00 +12°C° 0 mm 1 mps 761 mmHg 90%
    02:00 +12°C° 0 mm 1 mps 761 mmHg 89%
    03:00 +12°C° 0 mm 1 mps 761 mmHg 89%
    04:00 +11°C° 0 mm 1 mps 761 mmHg 88%
    05:00 +11°C° 0 mm 1 mps 761 mmHg 88%
    06:00 +13°C° 0 mm 1 mps 761 mmHg 82%
    07:00 +14°C° 0 mm 1 mps 761 mmHg 76%
    08:00 +16°C° 0 mm 1 mps 761 mmHg 70%
    09:00 +18°C° 0 mm 2 mps 761 mmHg 65%
    10:00 +19°C° 0 mm 2 mps 761 mmHg 60%
    11:00 +21°C° 0 mm 2 mps 761 mmHg 56%
    12:00 +21°C° 0 mm 3 mps 761 mmHg 53%
    13:00 +22°C° 0 mm 3 mps 761 mmHg 51%
    14:00 +22°C° 0 mm 3 mps 761 mmHg 48%
    15:00 +22°C° 0 mm 3 mps 761 mmHg 52%
    16:00 +21°C° 0 mm 2 mps 761 mmHg 56%
    17:00 +21°C° 0 mm 2 mps 760 mmHg 60%
    18:00 +19°C° 0 mm 2 mps 761 mmHg 67%
    19:00 +18°C° 0 mm 1 mps 761 mmHg 75%
    20:00 +15°C° 0 mm 1 mps 761 mmHg 82%
    21:00 +14°C° 0 mm 1 mps 761 mmHg 85%
    22:00 +14°C° 0 mm 1 mps 761 mmHg 87%
    23:00 +13°C° 0 mm 1 mps 761 mmHg 89%

    24 August, Saturday

    Time Temperature Precipitation Wind Pressure Humidity
    00:00 +13°C° 0 mm 1 mps 761 mmHg 88%
    01:00 +14°C° 0 mm 2 mps 761 mmHg 87%
    02:00 +14°C° 0 mm 2 mps 761 mmHg 86%
    03:00 +14°C° 0 mm 2 mps 761 mmHg 86%
    04:00 +14°C° 0 mm 2 mps 760 mmHg 87%
    05:00 +13°C° 0 mm 3 mps 760 mmHg 87%
    06:00 +14°C° 0 mm 3 mps 760 mmHg 84%
    07:00 +16°C° 0 mm 3 mps 760 mmHg 80%
    08:00 +17°C° 0 mm 3 mps 760 mmHg 76%
    09:00 +19°C° 0 mm 4 mps 760 mmHg 70%
    10:00 +20°C° 0 mm 4 mps 760 mmHg 64%
    11:00 +22°C° 0 mm 4 mps 760 mmHg 58%
    12:00 +22°C° 0 mm 4 mps 760 mmHg 56%
    13:00 +23°C° 0 mm 4 mps 759 mmHg 54%
    14:00 +25°C° 0 mm 5 mps 759 mmHg 52%
    15:00 +25°C° 0 mm 4 mps 759 mmHg 55%
    16:00 +24°C° 0 mm 3 mps 759 mmHg 59%
    17:00 +24°C° 0 mm 3 mps 758 mmHg 62%
    18:00 +21°C° 0 mm 3 mps 758 mmHg 68%
    19:00 +19°C° 0 mm 2 mps 758 mmHg 74%
    20:00 +18°C° 0 mm 2 mps 758 mmHg 80%
    21:00 +17°C° 0 mm 2 mps 758 mmHg 84%
    22:00 +16°C° 0 mm 2 mps 758 mmHg 87%
    23:00 +16°C° 0 mm 2 mps 758 mmHg 90%

    25 August, Sunday

    Time Temperature Precipitation Wind Pressure Humidity
    00:00 +15°C° 0 mm 2 mps 758 mmHg 92%
    01:00 +15°C° 0 mm 2 mps 758 mmHg 94%
    02:00 +14°C° 0 mm 2 mps 758 mmHg 95%
    03:00 +14°C° 0 mm 2 mps 758 mmHg 95%
    04:00 +14°C° 0 mm 2 mps 758 mmHg 95%
    05:00 +14°C° 0 mm 2 mps 758 mmHg 95%
    06:00 +15°C° 0 mm 2 mps 758 mmHg 92%
    07:00 +16°C° 0 mm 2 mps 758 mmHg 89%
    08:00 +17°C° 0 mm 2 mps 758 mmHg 86%
    09:00 +18°C° 0 mm 2 mps 758 mmHg 80%
    10:00 +19°C° 0 mm 2 mps 758 mmHg 75%
    11:00 +20°C° 0 mm 2 mps 758 mmHg 70%
    12:00 +21°C° 0 mm 2 mps 758 mmHg 66%
    13:00 +21°C° 0 mm 2 mps 758 mmHg 63%
    14:00 +23°C° 0 mm 2 mps 758 mmHg 59%
    15:00 +23°C° 0 mm 2 mps 758 mmHg 62%
    16:00 +22°C° 0 mm 1 mps 758 mmHg 65%
    17:00 +22°C° 0 mm 1 mps 758 mmHg 67%
    18:00 +20°C° 0 mm 1 mps 758 mmHg 72%
    19:00 +18°C° 0 mm 1 mps 758 mmHg 77%
    20:00 +15°C° 0 mm 1 mps 758 mmHg 82%
    21:00 +15°C° 0 mm 1 mps 758 mmHg 81%
    22:00 +14°C° 0 mm 1 mps 758 mmHg 79%
    23:00 +14°C° 0 mm 1 mps 758 mmHg 78%
    Show more